User: anonymous   Login
Location: Igri�s
(42.2144°N, 0.4320°W)
Time: 17:50:26
(UTC+00:00)
Language:

Meteor 1-13 Rocket - Orbit

View from above orbital plane
View from above orbital plane
View from above satellite
View from above satellite

Ground track
Ground track

The orbit data is extracted from the following two-line orbital elements,

1  6257U 72085B   20296.19056701 -.00000072  00000-0 -50055-4 0  9990
2  6257  81.2610  57.8503 0055387 288.3119  71.2029 14.06456455461392
Epoch (UTC): 22 October 2020 04:34:24
Eccentricity: 0.0055387
inclination: 81.2610°
perigee height: 831 km
apogee height: 911 km
right ascension of ascending node: 57.8503°
argument of perigee: 288.3119°
revolutions per day: 14.06456455
mean anomaly at epoch: 71.2029°
orbit number at epoch: 46139

The dashed part of the orbit path shows where the satellite is in the earth's shadow,  

DLR